軌道要素
Epoch 2022 Jan. 21.0 TT = JDT 2459600.5
T 2022 Jan. 3.32597 TT Rudenko
q 0.6152366 (2000.0) P Q
z +0.0000249 Peri. 225.09575 +0.63776630 +0.29156526
+/-0.0000139 Node 255.89483 +0.72787449 -0.53085203
e 0.9999847 Incl. 132.68647 -0.25189854 -0.79572974
From 101 observations 2020 Apr. 11-2021 Jan. 9, mean residual 0".5.
|